| time (UTC) | temp F | wind direction | speed MPH | gust MPH | rain 1hr in | rain 24hr in | rain mn in | humidity % | barometer mb |
| 20260903194406 | 96 | 315 | 2.0 | 7.0 | 0.00 | 0.00 | 0.00 | 59 | 972.9 |
| 20260903193906 | 96 | 142 | 2.0 | 7.0 | 0.00 | 0.00 | 0.00 | 58 | 972.9 |
| 20260903192906 | 96 | 308 | 2.0 | 6.0 | 0.00 | 0.00 | 0.00 | 60 | 973.0 |
| 20260903192406 | 95 | 200 | 2.0 | 6.0 | 0.00 | 0.00 | 0.00 | 59 | 973.1 |
| 20260903191906 | 94 | 311 | 2.0 | 4.0 | 0.00 | 0.00 | 0.00 | 62 | 973.1 |
| 20260903191405 | 94 | 313 | 2.0 | 6.0 | 0.00 | 0.00 | 0.00 | 63 | 973.2 |
| 20260903190906 | 94 | 317 | 3.0 | 6.0 | 0.00 | 0.00 | 0.00 | 66 | 973.1 |
| 20260903190406 | 93 | 315 | 3.0 | 6.0 | 0.00 | 0.00 | 0.00 | 67 | 973.1 |
| 20260903185907 | 93 | 318 | 2.0 | 5.0 | 0.00 | 0.00 | 0.00 | 67 | 973.2 |
| 20260903185406 | 92 | 304 | 2.0 | 5.0 | 0.00 | 0.00 | 0.00 | 67 | 973.2 |
| 20260903184906 | 91 | 303 | 1.0 | 5.0 | 0.00 | 0.00 | 0.00 | 75 | 973.3 |
| 20260903184406 | 90 | 313 | 1.0 | 4.0 | 0.00 | 0.00 | 0.00 | 77 | 973.4 |
| 20260903183906 | 90 | 313 | 1.0 | 4.0 | 0.00 | 0.00 | 0.00 | 74 | 973.4 |
| 20260903183406 | 90 | 313 | 0.0 | 4.0 | 0.00 | 0.00 | 0.00 | 76 | 973.5 |
| 20260903182907 | 90 | 313 | 1.0 | 4.0 | 0.00 | 0.00 | 0.00 | 78 | 973.5 |
| 20260903182407 | 91 | 313 | 1.0 | 4.0 | 0.00 | 0.00 | 0.00 | 75 | 973.5 |
| 20260903180405 | 91 | 313 | 1.0 | 4.0 | 0.00 | 0.00 | 0.00 | 76 | 973.7 |
| 20260903175906 | 90 | 313 | 0.0 | 4.0 | 0.00 | 0.00 | 0.00 | 74 | 973.8 |
| 20260903175406 | 89 | 313 | 0.0 | 0.0 | 0.00 | 0.00 | 0.00 | 73 | 973.9 |
| 20260903174907 | 90 | 313 | 0.0 | 1.0 | 0.00 | 0.00 | 0.00 | 73 | 973.9 |
| 20260903174406 | 90 | 313 | 0.0 | 3.0 | 0.00 | 0.00 | 0.00 | 73 | 973.9 |
| 20260903173905 | 90 | 313 | 0.0 | 3.0 | 0.00 | 0.00 | 0.00 | 71 | 974.0 |
| 20260903172905 | 90 | 313 | 1.0 | 3.0 | 0.00 | 0.00 | 0.00 | 72 | 974.1 |
| 20260903172406 | 90 | 313 | 1.0 | 5.0 | 0.00 | 0.00 | 0.00 | 72 | 974.2 |
| 20260903171906 | 90 | 313 | 2.0 | 5.0 | 0.00 | 0.00 | 0.00 | 70 | 974.2 |
| 20260903171406 | 91 | 313 | 2.0 | 6.0 | 0.00 | 0.00 | 0.00 | 70 | 974.2 |
| 20260903170905 | 91 | 213 | 3.0 | 7.0 | 0.00 | 0.00 | 0.00 | 68 | 974.3 |
| 20260903170404 | 92 | 298 | 3.0 | 7.0 | 0.00 | 0.00 | 0.00 | 70 | 974.3 |
| 20260903165903 | 92 | 302 | 3.0 | 7.0 | 0.00 | 0.00 | 0.00 | 69 | 974.4 |
| 20260903165403 | 92 | 315 | 2.0 | 5.0 | 0.00 | 0.00 | 0.00 | 70 | 974.4 |
| 20260903164900 | 92 | 347 | 1.0 | 6.0 | 0.00 | 0.00 | 0.00 | 67 | 974.5 |
| 20260903164353 | 92 | 100 | 2.0 | 6.0 | 0.00 | 0.00 | 0.00 | 68 | 974.5 |
| 20260903163847 | 92 | 117 | 2.0 | 7.0 | 0.00 | 0.00 | 0.00 | 68 | 974.6 |
| 20260903163341 | 92 | 145 | 3.0 | 7.0 | 0.00 | 0.00 | 0.00 | 72 | 974.6 |
| 20260903162835 | 93 | 307 | 2.0 | 7.0 | 0.00 | 0.00 | 0.00 | 68 | 974.5 |
| 20260903162329 | 93 | 163 | 2.0 | 6.0 | 0.00 | 0.00 | 0.00 | 66 | 974.6 |
| 20260903161823 | 92 | 163 | 1.0 | 5.0 | 0.00 | 0.00 | 0.00 | 68 | 974.7 |
| 20260903161318 | 92 | 322 | 1.0 | 6.0 | 0.00 | 0.00 | 0.00 | 66 | 974.7 |
| 20260903160306 | 91 | 90 | 1.0 | 4.0 | 0.00 | 0.00 | 0.00 | 69 | 974.7 |
| 20260903155759 | 92 | 90 | 2.0 | 6.0 | 0.00 | 0.00 | 0.00 | 66 | 974.8 |
| 20260903155253 | 92 | 91 | 1.0 | 6.0 | 0.00 | 0.00 | 0.00 | 68 | 974.8 |
| 20260903154747 | 92 | 91 | 1.0 | 4.0 | 0.00 | 0.00 | 0.00 | 68 | 974.9 |
| 20260903154241 | 91 | 91 | 0.0 | 3.0 | 0.00 | 0.00 | 0.00 | 71 | 975.0 |
| 20260903153735 | 91 | 91 | 1.0 | 3.0 | 0.00 | 0.00 | 0.00 | 70 | 974.9 |
| 20260903153229 | 90 | 95 | 1.0 | 3.0 | 0.00 | 0.00 | 0.00 | 73 | 974.9 |
| 20260903152723 | 90 | 95 | 1.0 | 3.0 | 0.00 | 0.00 | 0.00 | 71 | 975.0 |
| 20260903152217 | 90 | 95 | 1.0 | 3.0 | 0.00 | 0.00 | 0.00 | 71 | 975.0 |
| 20260903151711 | 90 | 95 | 1.0 | 3.0 | 0.00 | 0.00 | 0.00 | 72 | 975.0 |
| 20260903151206 | 89 | 95 | 1.0 | 3.0 | 0.00 | 0.00 | 0.00 | 72 | 975.0 |
| 20260903150658 | 89 | 95 | 1.0 | 3.0 | 0.00 | 0.00 | 0.00 | 74 | 975.1 |
| 20260903150153 | 88 | 95 | 1.0 | 3.0 | 0.00 | 0.00 | 0.00 | 75 | 975.1 |
| 20260903145648 | 88 | 98 | 1.0 | 4.0 | 0.00 | 0.00 | 0.00 | 74 | 975.1 |
| 20260903145140 | 88 | 97 | 1.0 | 4.0 | 0.00 | 0.00 | 0.00 | 74 | 975.0 |
| 20260903144634 | 88 | 76 | 1.0 | 3.0 | 0.00 | 0.00 | 0.00 | 76 | 975.0 |
| 20260903144128 | 88 | 76 | 1.0 | 3.0 | 0.00 | 0.00 | 0.00 | 76 | 975.0 |
| 20260903143622 | 88 | 76 | 1.0 | 3.0 | 0.00 | 0.00 | 0.00 | 78 | 975.1 |
| 20260903143117 | 87 | 76 | 1.0 | 3.0 | 0.00 | 0.00 | 0.00 | 78 | 975.1 |
| 20260903142611 | 87 | 101 | 1.0 | 2.0 | 0.00 | 0.00 | 0.00 | 77 | 975.0 |
| 20260903142105 | 86 | 106 | 0.0 | 2.0 | 0.00 | 0.00 | 0.00 | 80 | 975.1 |
| 20260903141559 | 85 | 153 | 0.0 | 2.0 | 0.00 | 0.00 | 0.00 | 81 | 975.1 |
| 20260903141052 | 85 | 153 | 1.0 | 4.0 | 0.00 | 0.00 | 0.00 | 81 | 975.1 |
| 20260903140546 | 85 | 153 | 1.0 | 4.0 | 0.00 | 0.00 | 0.00 | 80 | 975.0 |
| 20260903140041 | 85 | 188 | 0.0 | 3.0 | 0.00 | 0.00 | 0.00 | 81 | 975.1 |
| 20260903135534 | 84 | 188 | 0.0 | 3.0 | 0.00 | 0.00 | 0.00 | 82 | 975.0 |
| 20260903135029 | 84 | 188 | 0.0 | 2.0 | 0.00 | 0.00 | 0.00 | 84 | 974.9 |
| 20260903134016 | 82 | 188 | 0.0 | 3.0 | 0.00 | 0.00 | 0.00 | 84 | 974.9 |
| 20260903133510 | 81 | 188 | 0.0 | 3.0 | 0.00 | 0.00 | 0.00 | 84 | 975.0 |
| 20260903133005 | 79 | 49 | 0.0 | 0.0 | 0.00 | 0.00 | 0.00 | 77 | 974.9 |
| 20260903132500 | 78 | 49 | 0.0 | 0.0 | 0.00 | 0.00 | 0.00 | 71 | 974.9 |
| 20260903130942 | 75 | 49 | 0.0 | 0.0 | 0.00 | 0.00 | 0.00 | 66 | 975.1 |
| 20260903130434 | 74 | 49 | 0.0 | 0.0 | 0.00 | 0.00 | 0.00 | 66 | 975.1 |
| 20260903125928 | 74 | 49 | 0.0 | 0.0 | 0.00 | 0.00 | 0.00 | 66 | 975.0 |
| 20260903125422 | 73 | 49 | 0.0 | 0.0 | 0.00 | 0.00 | 0.00 | 67 | 974.9 |
| 20260903124917 | 72 | 49 | 0.0 | 0.0 | 0.00 | 0.00 | 0.00 | 67 | 975.0 |
| 20260903124412 | 71 | 49 | 0.0 | 0.0 | 0.00 | 0.00 | 0.00 | 67 | 975.0 |
| 20260903123905 | 71 | 49 | 0.0 | 0.0 | 0.00 | 0.00 | 0.00 | 67 | 974.9 |
| 20260903122853 | 70 | 49 | 0.0 | 0.0 | 0.00 | 0.00 | 0.00 | 67 | 974.8 |
| 20260903122347 | 70 | 49 | 0.0 | 0.0 | 0.00 | 0.00 | 0.00 | 67 | 974.8 |
| 20260903121840 | 69 | 49 | 0.0 | 0.0 | 0.00 | 0.00 | 0.00 | 67 | 974.8 |
| 20260903121334 | 69 | 49 | 0.0 | 0.0 | 0.00 | 0.00 | 0.00 | 68 | 974.8 |
| 20260903120829 | 69 | 49 | 0.0 | 0.0 | 0.00 | 0.00 | 0.00 | 68 | 974.7 |
| 20260903120323 | 69 | 49 | 0.0 | 0.0 | 0.00 | 0.00 | 0.00 | 68 | 974.8 |
| 20260903115816 | 68 | 49 | 0.0 | 0.0 | 0.00 | 0.00 | 0.00 | 68 | 974.7 |
| 20260903115310 | 68 | 49 | 0.0 | 0.0 | 0.00 | 0.00 | 0.00 | 68 | 974.7 |
| 20260903114805 | 68 | 49 | 0.0 | 0.0 | 0.00 | 0.00 | 0.00 | 68 | 974.6 |
| 20260903114259 | 68 | 49 | 0.0 | 0.0 | 0.00 | 0.00 | 0.00 | 68 | 974.5 |
| 20260903113753 | 68 | 49 | 0.0 | 0.0 | 0.00 | 0.00 | 0.00 | 68 | 974.5 |
| 20260903113247 | 68 | 49 | 0.0 | 0.0 | 0.00 | 0.00 | 0.00 | 68 | 974.4 |
| 20260903112741 | 68 | 49 | 0.0 | 0.0 | 0.00 | 0.00 | 0.00 | 68 | 974.3 |
| 20260903112235 | 68 | 49 | 0.0 | 0.0 | 0.00 | 0.00 | 0.00 | 68 | 974.3 |
| 20260903111729 | 68 | 49 | 0.0 | 0.0 | 0.00 | 0.00 | 0.00 | 68 | 974.3 |
| 20260903111223 | 67 | 49 | 0.0 | 0.0 | 0.00 | 0.00 | 0.00 | 69 | 974.3 |
| 20260903110717 | 67 | 49 | 0.0 | 0.0 | 0.00 | 0.00 | 0.00 | 69 | 974.2 |
| 20260903110211 | 67 | 49 | 0.0 | 0.0 | 0.00 | 0.00 | 0.00 | 69 | 974.2 |
| 20260903105706 | 68 | 49 | 0.0 | 0.0 | 0.00 | 0.00 | 0.00 | 69 | 974.1 |
| 20260903105159 | 68 | 49 | 0.0 | 0.0 | 0.00 | 0.00 | 0.00 | 69 | 974.2 |
| 20260903104652 | 68 | 49 | 0.0 | 0.0 | 0.00 | 0.00 | 0.00 | 69 | 974.1 |
| 20260903104146 | 68 | 49 | 0.0 | 0.0 | 0.00 | 0.00 | 0.00 | 69 | 974.1 |
| 20260903103641 | 68 | 49 | 0.0 | 0.0 | 0.00 | 0.00 | 0.00 | 69 | 974.1 |
| 20260903103135 | 68 | 49 | 0.0 | 0.0 | 0.00 | 0.00 | 0.00 | 69 | 974.1 |
| 20260903102629 | 68 | 49 | 0.0 | 0.0 | 0.00 | 0.00 | 0.00 | 69 | 974.0 |
| 20260903102123 | 68 | 49 | 0.0 | 0.0 | 0.00 | 0.00 | 0.00 | 69 | 974.0 |
| 20260903101111 | 68 | 49 | 0.0 | 0.0 | 0.00 | 0.00 | 0.00 | 69 | 973.9 |
| 20260903100605 | 68 | 49 | 0.0 | 0.0 | 0.00 | 0.00 | 0.00 | 69 | 973.8 |
| 20260903100058 | 68 | 49 | 0.0 | 0.0 | 0.00 | 0.00 | 0.00 | 69 | 973.8 |
| 20260903095558 | 69 | 49 | 0.0 | 0.0 | 0.00 | 0.00 | 0.00 | 69 | 973.8 |
| 20260903095057 | 68 | 49 | 0.0 | 0.0 | 0.00 | 0.00 | 0.00 | 69 | 973.7 |
| 20260903094053 | 69 | 49 | 0.0 | 0.0 | 0.00 | 0.00 | 0.00 | 69 | 973.7 |
| 20260903093554 | 69 | 49 | 0.0 | 0.0 | 0.00 | 0.00 | 0.00 | 69 | 973.7 |
| 20260903093050 | 69 | 49 | 0.0 | 0.0 | 0.00 | 0.00 | 0.00 | 69 | 973.7 |
| 20260903092549 | 69 | 49 | 0.0 | 0.0 | 0.00 | 0.00 | 0.00 | 69 | 973.7 |
| 20260903092048 | 69 | 49 | 0.0 | 0.0 | 0.00 | 0.00 | 0.00 | 69 | 973.7 |
| 20260903091547 | 69 | 49 | 0.0 | 0.0 | 0.00 | 0.00 | 0.00 | 69 | 973.7 |
| 20260903090543 | 69 | 49 | 0.0 | 0.0 | 0.00 | 0.00 | 0.00 | 69 | 973.6 |
| 20260903090041 | 69 | 49 | 0.0 | 0.0 | 0.00 | 0.00 | 0.00 | 69 | 973.7 |
| 20260903085542 | 69 | 49 | 0.0 | 0.0 | 0.00 | 0.00 | 0.00 | 69 | 973.7 |
| 20260903085041 | 69 | 49 | 0.0 | 0.0 | 0.00 | 0.00 | 0.00 | 70 | 973.6 |
| 20260903084037 | 69 | 49 | 0.0 | 0.0 | 0.00 | 0.00 | 0.00 | 70 | 973.5 |
| 20260903083535 | 69 | 49 | 0.0 | 0.0 | 0.00 | 0.00 | 0.00 | 70 | 973.6 |
| 20260903082532 | 69 | 49 | 0.0 | 0.0 | 0.00 | 0.00 | 0.00 | 70 | 973.5 |
| 20260903082029 | 70 | 49 | 0.0 | 0.0 | 0.00 | 0.00 | 0.00 | 69 | 973.3 |
| 20260903081527 | 70 | 49 | 0.0 | 0.0 | 0.00 | 0.00 | 0.00 | 69 | 973.4 |
| 20260903081026 | 70 | 49 | 0.0 | 0.0 | 0.00 | 0.00 | 0.00 | 69 | 973.5 |
| 20260903080520 | 70 | 49 | 0.0 | 0.0 | 0.00 | 0.00 | 0.00 | 69 | 973.5 |
| 20260903075510 | 69 | 49 | 0.0 | 0.0 | 0.00 | 0.00 | 0.00 | 70 | 973.6 |
| 20260903075002 | 70 | 49 | 0.0 | 0.0 | 0.00 | 0.00 | 0.00 | 70 | 973.5 |
| 20260903074456 | 70 | 49 | 0.0 | 0.0 | 0.00 | 0.00 | 0.00 | 70 | 973.5 |
| 20260903073448 | 70 | 49 | 0.0 | 0.0 | 0.00 | 0.00 | 0.00 | 70 | 973.4 |
| 20260903072948 | 70 | 49 | 0.0 | 0.0 | 0.00 | 0.00 | 0.00 | 70 | 973.3 |
| 20260903072449 | 70 | 49 | 0.0 | 0.0 | 0.00 | 0.00 | 0.00 | 70 | 973.4 |
| 20260903071949 | 70 | 49 | 0.0 | 0.0 | 0.00 | 0.00 | 0.00 | 70 | 973.4 |
| 20260903071447 | 70 | 49 | 0.0 | 0.0 | 0.00 | 0.00 | 0.00 | 70 | 973.4 |
| 20260903070945 | 71 | 49 | 0.0 | 0.0 | 0.00 | 0.00 | 0.00 | 70 | 973.4 |
| 20260903070444 | 71 | 49 | 0.0 | 0.0 | 0.00 | 0.00 | 0.00 | 71 | 973.5 |
| 20260903065945 | 71 | 49 | 0.0 | 0.0 | 0.00 | 0.00 | 0.00 | 71 | 973.5 |
| 20260903065445 | 71 | 49 | 0.0 | 0.0 | 0.00 | 0.00 | 0.00 | 71 | 973.5 |
| 20260903064445 | 71 | 49 | 0.0 | 0.0 | 0.00 | 0.00 | 0.00 | 71 | 973.5 |
| 20260903063946 | 71 | 49 | 0.0 | 0.0 | 0.00 | 0.00 | 0.00 | 71 | 973.4 |
| 20260903063446 | 71 | 49 | 0.0 | 0.0 | 0.00 | 0.00 | 0.00 | 71 | 973.4 |
| 20260903062946 | 71 | 49 | 0.0 | 0.0 | 0.00 | 0.00 | 0.00 | 71 | 973.3 |
| 20260903062447 | 71 | 49 | 0.0 | 0.0 | 0.00 | 0.00 | 0.00 | 71 | 973.3 |
| 20260903061444 | 71 | 49 | 0.0 | 0.0 | 0.00 | 0.00 | 0.00 | 72 | 973.3 |
| 20260903060945 | 71 | 49 | 0.0 | 0.0 | 0.00 | 0.00 | 0.00 | 72 | 973.3 |
| 20260903060445 | 71 | 49 | 0.0 | 0.0 | 0.00 | 0.00 | 0.00 | 72 | 973.4 |
| 20260903055945 | 72 | 49 | 0.0 | 0.0 | 0.00 | 0.00 | 0.00 | 71 | 973.3 |
| 20260903055446 | 72 | 49 | 0.0 | 0.0 | 0.00 | 0.00 | 0.00 | 72 | 973.3 |
| 20260903054945 | 72 | 49 | 0.0 | 0.0 | 0.00 | 0.00 | 0.00 | 72 | 973.4 |
| 20260903054444 | 72 | 49 | 0.0 | 0.0 | 0.00 | 0.00 | 0.00 | 72 | 973.4 |
| 20260903053945 | 72 | 49 | 0.0 | 0.0 | 0.00 | 0.00 | 0.00 | 72 | 973.4 |
| 20260903053444 | 72 | 49 | 0.0 | 0.0 | 0.00 | 0.00 | 0.00 | 73 | 973.3 |
| 20260903052943 | 72 | 49 | 0.0 | 0.0 | 0.00 | 0.00 | 0.00 | 73 | 973.4 |
| 20260903052442 | 72 | 49 | 0.0 | 0.0 | 0.00 | 0.00 | 0.00 | 74 | 973.4 |
| 20260903051945 | 72 | 49 | 0.0 | 0.0 | 0.00 | 0.00 | 0.00 | 74 | 973.5 |
| 20260903051438 | 72 | 49 | 0.0 | 0.0 | 0.00 | 0.00 | 0.00 | 74 | 973.5 |
| 20260903050931 | 73 | 49 | 0.0 | 0.0 | 0.00 | 0.00 | 0.00 | 74 | 973.7 |
| 20260903050425 | 73 | 49 | 0.0 | 0.0 | 0.00 | 0.00 | 0.00 | 74 | 973.7 |
| 20260903045919 | 73 | 49 | 0.0 | 0.0 | 0.00 | 0.00 | 0.00 | 74 | 973.8 |
| 20260903044906 | 73 | 49 | 0.0 | 0.0 | 0.00 | 0.00 | 0.00 | 75 | 973.7 |
| 20260903044402 | 73 | 49 | 0.0 | 0.0 | 0.00 | 0.00 | 0.00 | 75 | 973.8 |
| 20260903043856 | 73 | 49 | 0.0 | 0.0 | 0.00 | 0.00 | 0.00 | 75 | 973.8 |
| 20260903043355 | 73 | 49 | 0.0 | 0.0 | 0.00 | 0.00 | 0.00 | 75 | 973.8 |
| 20260903042856 | 73 | 49 | 0.0 | 0.0 | 0.00 | 0.00 | 0.00 | 76 | 973.8 |
| 20260903042354 | 73 | 49 | 0.0 | 0.0 | 0.00 | 0.00 | 0.00 | 76 | 973.9 |
| 20260903041854 | 74 | 49 | 0.0 | 0.0 | 0.00 | 0.00 | 0.00 | 76 | 973.9 |
| 20260903041354 | 74 | 49 | 0.0 | 0.0 | 0.00 | 0.00 | 0.00 | 76 | 974.0 |
| 20260903040853 | 74 | 49 | 0.0 | 0.0 | 0.00 | 0.00 | 0.00 | 76 | 974.0 |
| 20260903040350 | 74 | 49 | 0.0 | 0.0 | 0.00 | 0.00 | 0.00 | 77 | 973.9 |
| 20260903035846 | 74 | 49 | 0.0 | 0.0 | 0.00 | 0.00 | 0.00 | 77 | 974.0 |
| 20260903035347 | 74 | 49 | 0.0 | 0.0 | 0.00 | 0.00 | 0.00 | 77 | 974.1 |
| 20260903034847 | 74 | 49 | 0.0 | 0.0 | 0.00 | 0.00 | 0.00 | 78 | 974.2 |
| 20260903034347 | 74 | 49 | 0.0 | 0.0 | 0.00 | 0.00 | 0.00 | 78 | 974.2 |
| 20260903033847 | 75 | 49 | 0.0 | 0.0 | 0.00 | 0.00 | 0.00 | 78 | 974.2 |
| 20260903033347 | 75 | 49 | 0.0 | 0.0 | 0.00 | 0.00 | 0.00 | 78 | 974.2 |
| 20260903032842 | 75 | 49 | 0.0 | 0.0 | 0.00 | 0.00 | 0.00 | 78 | 974.3 |
| 20260903031343 | 75 | 49 | 0.0 | 0.0 | 0.00 | 0.00 | 0.00 | 79 | 974.4 |
| 20260903030844 | 75 | 49 | 0.0 | 0.0 | 0.00 | 0.00 | 0.00 | 79 | 974.4 |
| 20260903030344 | 75 | 49 | 0.0 | 0.0 | 0.00 | 0.00 | 0.00 | 80 | 974.5 |
| 20260903025845 | 76 | 49 | 0.0 | 0.0 | 0.00 | 0.00 | 0.00 | 80 | 974.6 |
| 20260903023830 | 76 | 49 | 0.0 | 0.0 | 0.00 | 0.00 | 0.00 | 81 | 974.6 |
| 20260903023323 | 76 | 49 | 0.0 | 0.0 | 0.00 | 0.00 | 0.00 | 82 | 974.6 |
| 20260903022818 | 76 | 49 | 0.0 | 0.0 | 0.00 | 0.00 | 0.00 | 82 | 974.6 |
| 20260903022314 | 77 | 49 | 0.0 | 0.0 | 0.00 | 0.00 | 0.00 | 82 | 974.7 |
| 20260903021809 | 77 | 49 | 0.0 | 0.0 | 0.00 | 0.00 | 0.00 | 83 | 974.8 |
| 20260903021306 | 77 | 49 | 0.0 | 0.0 | 0.00 | 0.00 | 0.00 | 82 | 974.7 |
| 20260903020804 | 77 | 49 | 0.0 | 0.0 | 0.00 | 0.00 | 0.00 | 83 | 974.7 |
| 20260903020302 | 77 | 49 | 0.0 | 0.0 | 0.00 | 0.00 | 0.00 | 83 | 974.7 |
| 20260903015801 | 77 | 49 | 0.0 | 0.0 | 0.00 | 0.00 | 0.00 | 83 | 974.7 |
| 20260903014800 | 78 | 49 | 0.0 | 0.0 | 0.00 | 0.00 | 0.00 | 84 | 974.5 |
| 20260903014259 | 78 | 49 | 0.0 | 0.0 | 0.00 | 0.00 | 0.00 | 84 | 974.5 |
| 20260903013757 | 78 | 49 | 0.0 | 0.0 | 0.00 | 0.00 | 0.00 | 84 | 974.4 |
| 20260903013256 | 78 | 49 | 0.0 | 0.0 | 0.00 | 0.00 | 0.00 | 85 | 974.3 |
| 20260903012757 | 78 | 49 | 0.0 | 0.0 | 0.00 | 0.00 | 0.00 | 85 | 974.2 |
| 20260903012256 | 78 | 49 | 0.0 | 0.0 | 0.00 | 0.00 | 0.00 | 85 | 974.1 |
| 20260903011759 | 79 | 49 | 0.0 | 0.0 | 0.00 | 0.00 | 0.00 | 85 | 974.1 |
| 20260903011257 | 79 | 49 | 0.0 | 0.0 | 0.00 | 0.00 | 0.00 | 85 | 974.0 |
| 20260903010254 | 79 | 49 | 0.0 | 0.0 | 0.00 | 0.00 | 0.00 | 85 | 973.9 |
| 20260903005752 | 79 | 49 | 0.0 | 0.0 | 0.00 | 0.00 | 0.00 | 86 | 973.8 |
| 20260903005254 | 79 | 49 | 0.0 | 0.0 | 0.00 | 0.00 | 0.00 | 85 | 973.9 |
| 20260903004751 | 80 | 49 | 0.0 | 0.0 | 0.00 | 0.00 | 0.00 | 85 | 973.9 |
| 20260903003743 | 80 | 49 | 0.0 | 0.0 | 0.00 | 0.00 | 0.00 | 85 | 973.9 |
| 20260903003237 | 81 | 49 | 0.0 | 0.0 | 0.00 | 0.00 | 0.00 | 85 | 973.8 |
| 20260903002731 | 81 | 49 | 0.0 | 0.0 | 0.00 | 0.00 | 0.00 | 85 | 973.8 |
| 20260903002226 | 82 | 49 | 0.0 | 0.0 | 0.00 | 0.00 | 0.00 | 84 | 973.7 |
| 20260903001720 | 82 | 49 | 0.0 | 0.0 | 0.00 | 0.00 | 0.00 | 84 | 973.6 |
| 20260903000707 | 83 | 49 | 0.0 | 0.0 | 0.00 | 0.00 | 0.00 | 83 | 973.6 |
| 20260903000204 | 83 | 49 | 0.0 | 0.0 | 0.00 | 0.00 | 0.00 | 83 | 973.5 |
| 20260902235656 | 84 | 49 | 0.0 | 0.0 | 0.00 | 0.00 | 0.00 | 83 | 973.4 |
| 20260902235150 | 84 | 49 | 0.0 | 0.0 | 0.00 | 0.00 | 0.00 | 82 | 973.4 |
| 20260902233632 | 86 | 49 | 0.0 | 0.0 | 0.00 | 0.00 | 0.00 | 79 | 973.4 |
| 20260902233125 | 87 | 49 | 0.0 | 0.0 | 0.00 | 0.00 | 0.00 | 77 | 973.4 |
| 20260902232620 | 87 | 49 | 0.0 | 0.0 | 0.00 | 0.00 | 0.00 | 75 | 973.4 |
| 20260902232114 | 88 | 49 | 0.0 | 0.0 | 0.00 | 0.00 | 0.00 | 74 | 973.3 |
| 20260902231609 | 89 | 49 | 0.0 | 0.0 | 0.00 | 0.00 | 0.00 | 74 | 973.4 |
| 20260902231102 | 89 | 49 | 0.0 | 0.0 | 0.00 | 0.00 | 0.00 | 72 | 973.4 |
| 20260902230556 | 89 | 49 | 0.0 | 0.0 | 0.00 | 0.00 | 0.00 | 72 | 973.4 |
| 20260902230051 | 89 | 49 | 0.0 | 0.0 | 0.00 | 0.00 | 0.00 | 70 | 973.4 |
| 20260902225544 | 90 | 49 | 0.0 | 0.0 | 0.00 | 0.00 | 0.00 | 70 | 973.4 |
| 20260902225038 | 91 | 49 | 0.0 | 0.0 | 0.00 | 0.00 | 0.00 | 70 | 973.4 |
| 20260902224532 | 92 | 49 | 0.0 | 0.0 | 0.00 | 0.00 | 0.00 | 65 | 973.4 |
| 20260902223014 | 95 | 49 | 0.0 | 2.0 | 0.00 | 0.00 | 0.00 | 62 | 973.4 |
| 20260902222508 | 95 | 49 | 0.0 | 2.0 | 0.00 | 0.00 | 0.00 | 60 | 973.4 |
| 20260902222003 | 95 | 49 | 0.0 | 0.0 | 0.00 | 0.00 | 0.00 | 61 | 973.4 |
| 20260902220950 | 95 | 49 | 0.0 | 2.0 | 0.00 | 0.00 | 0.00 | 62 | 973.5 |
| 20260902220444 | 95 | 49 | 1.0 | 4.0 | 0.00 | 0.00 | 0.00 | 62 | 973.5 |
| 20260902215432 | 96 | 150 | 0.0 | 2.0 | 0.00 | 0.00 | 0.00 | 61 | 973.5 |
| 20260902214926 | 96 | 150 | 0.0 | 2.0 | 0.00 | 0.00 | 0.00 | 58 | 973.5 |
| 20260902214420 | 96 | 150 | 0.0 | 2.0 | 0.00 | 0.00 | 0.00 | 58 | 973.5 |
| 20260902213407 | 96 | 146 | 1.0 | 4.0 | 0.00 | 0.00 | 0.00 | 59 | 973.5 |
| 20260902212901 | 96 | 146 | 1.0 | 5.0 | 0.00 | 0.00 | 0.00 | 57 | 973.5 |
| 20260902212356 | 96 | 165 | 1.0 | 5.0 | 0.00 | 0.00 | 0.00 | 60 | 973.5 |
| 20260902211849 | 95 | 253 | 1.0 | 4.0 | 0.00 | 0.00 | 0.00 | 61 | 973.6 |
| 20260902210838 | 94 | 345 | 2.0 | 4.0 | 0.00 | 0.00 | 0.00 | 60 | 973.6 |
| 20260902210331 | 95 | 304 | 2.0 | 4.0 | 0.00 | 0.00 | 0.00 | 60 | 973.6 |
| 20260902205825 | 94 | 204 | 2.0 | 5.0 | 0.00 | 0.00 | 0.00 | 61 | 973.6 |
| 20260902205320 | 94 | 131 | 2.0 | 5.0 | 0.00 | 0.00 | 0.00 | 59 | 973.6 |
| 20260902204814 | 94 | 298 | 2.0 | 10.0 | 0.00 | 0.00 | 0.00 | 60 | 973.7 |
| 20260902204308 | 95 | 310 | 3.0 | 10.0 | 0.00 | 0.00 | 0.00 | 59 | 973.6 |
| 20260902203802 | 95 | 166 | 2.0 | 7.0 | 0.00 | 0.00 | 0.00 | 61 | 973.6 |
| 20260902202750 | 96 | 134 | 1.0 | 5.0 | 0.00 | 0.00 | 0.00 | 58 | 973.7 |
| 20260902202244 | 96 | 315 | 1.0 | 4.0 | 0.00 | 0.00 | 0.00 | 61 | 973.6 |
| 20260902201231 | 95 | 304 | 2.0 | 9.0 | 0.00 | 0.00 | 0.00 | 62 | 973.7 |
| 20260902200726 | 95 | 129 | 2.0 | 9.0 | 0.00 | 0.00 | 0.00 | 59 | 973.8 |
| 20260902200219 | 95 | 319 | 2.0 | 4.0 | 0.00 | 0.00 | 0.00 | 60 | 973.8 |
| 20260902195714 | 95 | 5 | 1.0 | 4.0 | 0.00 | 0.00 | 0.00 | 58 | 973.9 |
| 20260902195207 | 95 | 59 | 1.0 | 4.0 | 0.00 | 0.00 | 0.00 | 61 | 973.9 |